Location: Amsterdam
(30.7274°N, 84.4357°W)
Time: 02:26:29
(UTC+00:00)

Transit 2A Rocket - Pass Details

Date: 21 February 2026
Orbit: 583 x 900 km, 66.7° (Epoch: 5 March)

Event Time Altitude Azimuth Distance (km) Brightness Sun altitude
Rises 06:55:47 0° 325° (NW) 3,244 - -64.9°
Reaches altitude 10° 06:58:26 10° 317° (NW) 2,258 - -64.5°
Maximum altitude 07:03:04 36° 252° (WSW) 1,104 - -63.8°
Drops below altitude 10° 07:07:20 10° 186° (S) 2,062 - -63.2°
Sets 07:09:40 0° 177° (S) 2,924 - -62.8°
